Charlotte, MI

4:36 PM EDT on July 27, 2016 (GMT -0400)
Charlotte

Weather History for KFPK - October, 2012

Change the Weather History Date:

Thursday, October 18, 2012

  Actual Average (KLAN) Record (KLAN)
Temperature  
Mean Temperature 52 °F 50 °F  
Max Temperature 59 °F 59 °F 82 °F (1938)
Min Temperature 44 °F 40 °F 17 °F (1976)
Degree Days  
Heating Degree Days 14 16  
Month to date heating degree days 231  
Since 1 July heating degree days 419  
Cooling Degree Days 0 0  
Month to date cooling degree days 4  
Year to date cooling degree days 622  
Growing Degree Days 2 (Base 50)    
Moisture  
Dew Point 44 °F    
Average Humidity 69    
Maximum Humidity 94    
Minimum Humidity 39    
Precipitation  
Precipitation 0.38 in 0.08 in 1.38 in (1947)
Month to date precipitation 1.51  
Year to date precipitation 26.10  
Snow  
Snow 0.00 in 0.00 in 3.00 in (1880)
Month to date snowfall 0.1  
Since 1 July snowfall 0.1  
Since 1 September snowfall 0.1  
Snow Depth -    
Sea Level Pressure  
Sea Level Pressure 29.46 in    
Wind  
Wind Speed 12 mph (South)    
Max Wind Speed 21 mph    
Max Gust Speed 30 mph    
Visibility 10 miles    
Events Rain    
T = Trace of Precipitation, MM = Missing Value Source: NWS Daily Summary

Daily Weather History Graph

Daily Weather History Graph

Search for Another Location

Airport or City:

Trip Planner

Search our weather history database for the weather conditions in past years. The results will help you decide how hot, cold, wet, or windy it might be!

Date:

Astronomy

Oct. 18, 2012 Rise Set
Actual Time 7:56 AM EDT 6:51 PM EDT
Civil Twilight 7:27 AM EDT 7:19 PM EDT
Nautical Twilight 6:55 AM EDT 7:52 PM EDT
Astronomical Twilight 6:22 AM EDT 8:25 PM EDT
Moon 11:42 AM EDT (10/18) 9:20 PM EDT (10/18)
Length of Visible Light 11h 52m
Length of Day
10h 55m
Waxing Crescent, 14% of the Moon is Illuminated
Oct 18
Waxing Crescent
Oct 21
First Quarter
Oct 29
Full
Nov 6
Last Quarter
Nov 13
New

Hourly Weather History & Observations

Time (EDT) Temp. Windchill Dew Point Humidity Pressure Visibility Wind Dir Wind Speed Gust Speed Precip Events Conditions
12:16 AM 58.1 °F - 55.6 °F 91% 29.51 in 5.0 mi SSE 11.5 mph 17.3 mph 0.07 in Rain Heavy Rain
12:35 AM 57.9 °F - 55.6 °F 92% 29.51 in 7.0 mi SE 10.4 mph 16.1 mph 0.14 in Rain Rain
12:56 AM 57.7 °F - 55.6 °F 92% 29.49 in 7.0 mi SE 9.2 mph 18.4 mph 0.18 in Rain Light Rain
1:15 AM 58.1 °F - 55.8 °F 92% 29.47 in 10.0 mi SE 11.5 mph - 0.01 in Rain Light Rain
1:35 AM 58.1 °F - 55.8 °F 92% 29.46 in 10.0 mi SE 9.2 mph 18.4 mph 0.01 in   Light Drizzle
1:55 AM 58.5 °F - 55.8 °F 91% 29.45 in 10.0 mi SE 12.7 mph 21.9 mph 0.01 in   Overcast
2:15 AM 58.5 °F - 55.4 °F 90% 29.43 in 10.0 mi SE 15.0 mph 20.7 mph N/A   Mostly Cloudy
2:35 AM 58.6 °F - 55.0 °F 88% 29.41 in 10.0 mi SSE 11.5 mph 23.0 mph N/A   Overcast
2:55 AM 58.8 °F - 54.7 °F 86% 29.40 in 10.0 mi SE 12.7 mph 23.0 mph N/A   Overcast
3:15 AM 59.0 °F - 54.5 °F 85% 29.39 in 10.0 mi SSE 10.4 mph 16.1 mph N/A   Mostly Cloudy
3:35 AM 59.0 °F - 54.0 °F 83% 29.39 in 10.0 mi SE 9.2 mph 19.6 mph N/A   Mostly Cloudy
3:55 AM 59.0 °F - 53.8 °F 83% 29.37 in 10.0 mi SE 10.4 mph 18.4 mph N/A   Mostly Cloudy
4:15 AM 59.4 °F - 52.9 °F 79% 29.36 in 10.0 mi SSE 10.4 mph 24.2 mph N/A   Mostly Cloudy
4:35 AM 59.4 °F - 52.0 °F 77% 29.35 in 10.0 mi SSE 11.5 mph 18.4 mph N/A   Mostly Cloudy
4:55 AM 59.4 °F - 51.8 °F 76% 29.34 in 10.0 mi SSE 10.4 mph 17.3 mph N/A   Overcast
5:15 AM 59.4 °F - 51.4 °F 75% 29.33 in 10.0 mi SSE 13.8 mph 17.3 mph N/A   Overcast
5:36 AM 59.4 °F - 50.5 °F 73% 29.32 in 10.0 mi SSE 11.5 mph 18.4 mph N/A   Overcast
5:55 AM 59.4 °F - 50.4 °F 72% 29.32 in 10.0 mi SSE 12.7 mph 20.7 mph N/A   Overcast
6:16 AM 58.5 °F - 50.5 °F 75% 29.32 in 10.0 mi South 12.7 mph 18.4 mph N/A   Overcast
6:35 AM 57.7 °F - 51.1 °F 78% 29.33 in 10.0 mi South 17.3 mph 25.3 mph N/A   Overcast
6:55 AM 55.6 °F - 51.8 °F 87% 29.33 in 10.0 mi South 11.5 mph - N/A   Overcast
7:35 AM 55.0 °F - 52.2 °F 90% 29.33 in 7.0 mi SSE 11.5 mph 18.4 mph 0.04 in Rain Light Rain
7:55 AM 54.7 °F - 52.7 °F 93% 29.33 in 7.0 mi SSE 10.4 mph - 0.07 in Rain Rain
8:15 AM 52.3 °F - 50.0 °F 92% 29.36 in 5.0 mi WSW 10.4 mph 18.4 mph 0.06 in Rain Light Rain
8:35 AM 51.6 °F - 49.1 °F 91% 29.37 in 10.0 mi WSW 10.4 mph 17.3 mph 0.09 in Rain Light Rain
8:55 AM 51.1 °F - 48.9 °F 92% 29.37 in 7.0 mi SSW 3.5 mph - 0.11 in Rain Light Rain
9:15 AM 51.1 °F - 49.1 °F 93% 29.38 in 7.0 mi SSW 6.9 mph - 0.01 in Rain Light Rain
9:35 AM 51.3 °F - 49.5 °F 94% 29.39 in 10.0 mi SSW 6.9 mph - 0.01 in   Overcast
9:55 AM 51.3 °F - 49.3 °F 93% 29.39 in 10.0 mi SSW 10.4 mph - 0.01 in   Overcast
10:15 AM 50.9 °F - 48.7 °F 92% 29.39 in 10.0 mi SSW 8.1 mph 16.1 mph N/A   Overcast
10:35 AM 50.9 °F - 48.6 °F 92% 29.41 in 10.0 mi SSW 10.4 mph - N/A   Overcast
10:55 AM 51.1 °F - 48.2 °F 90% 29.41 in 10.0 mi SSW 11.5 mph 16.1 mph N/A   Mostly Cloudy
11:15 AM 50.9 °F - 46.8 °F 86% 29.41 in 10.0 mi SSW 15.0 mph 20.7 mph N/A   Mostly Cloudy
11:35 AM 50.2 °F - 45.7 °F 85% 29.43 in 10.0 mi SSW 18.4 mph 28.8 mph N/A   Overcast
11:55 AM 50.9 °F - 45.0 °F 80% 29.44 in 10.0 mi SSW 16.1 mph 19.6 mph N/A   Overcast
12:15 PM 51.6 °F - 44.1 °F 75% 29.45 in 10.0 mi SSW 12.7 mph 25.3 mph N/A   Mostly Cloudy
12:35 PM 52.7 °F - 41.9 °F 67% 29.46 in 10.0 mi SW 19.6 mph 27.6 mph N/A   Overcast
12:55 PM 54.7 °F - 41.2 °F 60% 29.47 in 10.0 mi SW 18.4 mph 25.3 mph N/A   Mostly Cloudy
1:15 PM 55.2 °F - 39.4 °F 55% 29.47 in 10.0 mi SW 19.6 mph 28.8 mph N/A   Mostly Cloudy
1:35 PM 56.5 °F - 37.6 °F 49% 29.48 in 10.0 mi SW 18.4 mph 29.9 mph N/A   Mostly Cloudy
1:55 PM 55.0 °F - 37.6 °F 52% 29.47 in 10.0 mi SSW 17.3 mph 26.5 mph N/A   Scattered Clouds
2:15 PM 56.8 °F - 37.9 °F 49% 29.47 in 10.0 mi SW 15.0 mph 21.9 mph N/A   Scattered Clouds
2:35 PM 57.7 °F - 36.9 °F 46% 29.48 in 10.0 mi SSW 18.4 mph 25.3 mph N/A   Scattered Clouds
2:56 PM 57.4 °F - 36.9 °F 46% 29.48 in 10.0 mi SSW 15.0 mph 23.0 mph N/A   Clear
3:15 PM 56.7 °F - 34.9 °F 44% 29.49 in 10.0 mi SSW 16.1 mph 25.3 mph N/A   Scattered Clouds
3:35 PM 57.6 °F - 33.8 °F 41% 29.48 in 10.0 mi SSW 18.4 mph 26.5 mph N/A   Scattered Clouds
3:55 PM 59.4 °F - 35.1 °F 40% 29.48 in 10.0 mi SSW 17.3 mph 25.3 mph N/A   Scattered Clouds
4:15 PM 58.1 °F - 34.9 °F 42% 29.49 in 10.0 mi South 19.6 mph 25.3 mph N/A   Scattered Clouds
4:36 PM 57.4 °F - 36.1 °F 45% 29.50 in 10.0 mi SSE 20.7 mph 24.2 mph N/A   Scattered Clouds
4:55 PM 57.2 °F - 35.1 °F 43% 29.50 in 10.0 mi South 15.0 mph 25.3 mph N/A   Clear
5:16 PM 56.8 °F - 34.9 °F 44% 29.51 in 10.0 mi South 15.0 mph 19.6 mph N/A   Clear
5:35 PM 56.7 °F - 33.8 °F 42% 29.51 in 10.0 mi South 16.1 mph 19.6 mph N/A   Scattered Clouds
5:56 PM 55.8 °F - 33.8 °F 44% 29.52 in 10.0 mi South 15.0 mph 19.6 mph N/A   Scattered Clouds
6:15 PM 56.5 °F - 31.5 °F 39% 29.53 in 10.0 mi SSW 15.0 mph 21.9 mph N/A   Scattered Clouds
6:35 PM 56.3 °F - 31.5 °F 39% 29.54 in 10.0 mi SSW 9.2 mph 19.6 mph N/A   Clear
6:55 PM 55.4 °F - 32.2 °F 41% 29.55 in 10.0 mi South 8.1 mph - N/A   Clear
7:15 PM 54.7 °F - 32.7 °F 43% 29.55 in 10.0 mi SSW 8.1 mph - N/A   Clear
7:36 PM 54.5 °F - 32.9 °F 44% 29.56 in 10.0 mi South 6.9 mph - N/A   Clear
7:55 PM 53.4 °F - 33.4 °F 47% 29.56 in 10.0 mi South 6.9 mph - N/A   Mostly Cloudy
8:15 PM 53.6 °F - 34.0 °F 47% 29.57 in 10.0 mi South 8.1 mph - N/A   Overcast
8:35 PM 53.1 °F - 34.0 °F 48% 29.58 in 10.0 mi SSW 4.6 mph - N/A   Overcast
8:55 PM 54.0 °F - 32.9 °F 45% 29.59 in 10.0 mi SW 10.4 mph - N/A   Overcast
9:15 PM 51.6 °F - 35.6 °F 54% 29.61 in 10.0 mi WSW 13.8 mph 19.6 mph N/A   Overcast
9:35 PM 50.4 °F - 36.9 °F 60% 29.61 in 10.0 mi WSW 8.1 mph - N/A   Overcast
9:55 PM 50.0 °F - 37.4 °F 62% 29.61 in 10.0 mi SW 6.9 mph - N/A   Overcast
10:15 PM 49.5 °F - 37.8 °F 64% 29.62 in 10.0 mi SW 10.4 mph 16.1 mph N/A   Overcast
10:35 PM 48.4 °F - 37.9 °F 67% 29.62 in 10.0 mi SW 5.8 mph - N/A   Mostly Cloudy
10:55 PM 47.3 °F - 37.9 °F 70% 29.62 in 10.0 mi SW 3.5 mph - N/A   Scattered Clouds
11:15 PM 45.9 °F - 37.9 °F 74% 29.62 in 10.0 mi Calm Calm - N/A   Clear
11:35 PM 44.8 °F - 37.8 °F 76% 29.61 in 10.0 mi Calm Calm - N/A   Scattered Clouds
11:56 PM 44.8 °F 43.3 °F 39.6 °F 82% 29.61 in 10.0 mi SSE 3.5 mph - N/A   Mostly Cloudy